Main page
METAR-TAF:

METAR-TAF

Airports :

Pearland Regional Airport

Houston / Pearland, Texas, United States

latitude: 29-31-16N, longitude: 095-14-31W, elevation: 43 ft

Current weather observation

The report was made 1 hour and 6 minutes ago, at 16:53 UTC
Wind 7 mph from the East/Northeast
Temperature 90°F
Humidity 56%
Pressure 29.96 in. Hg
Visibility: 9 miles
Scattered clouds at a height of 4500 ft

METAR: KLVJ 141653Z AUTO 07006KT 9SM SCT045 32/22 A2996 RMK AO2 SLP144 T03220217

Time: 12:59 (17:59 UTC)


TAF: missing

Weather observations and forecasts of more than 4000 airports (METAR and TAF reports).

The available stations are represented by yellow and red dots on the map.

Hover mouse over dot to see the name of the station.

Then click to see weather observations and forecasts.

To change the map : click on the green buttons with a black cross to zoom in, on the green button with a dash to zoom out, or on the green arrows for adjacent maps.


METAR-TAF: